Preview of NWS' New Version of Forecast
This preview is not operational and should not be used for support decisions.

Regional Weather Roundup (RWR)

Issued by Philadelphia/Mt Holly (PHI)

                            
000
ASUS41 KPHI 181512
RWRPHI

REGIONAL WEATHER ROUNDUP
NATIONAL WEATHER SERVICE MOUNT HOLLY NJ
1100 AM EDT WED SEP 18 2019

NOTE:  "FAIR" INDICATES FEW OR NO CLOUDS BELOW 12,000 FEET WITH NO
SIGNIFICANT WEATHER AND/OR OBSTRUCTIONS TO VISIBILITY.

 * = STATION DOES NOT REPORT PRECIPITATION (E.G. RAIN, SNOW, ETC.) 
        OR FOG.

NJZ015>026-181600-
SOUTHERN NEW JERSEY
  
CITY           SKY/WX    TMP DP  RH WIND       PRES   REMARKS
POMONA         PTSUNNY   69  53  56 NE14      30.20F                  
WILDWOOD*      PTSUNNY   71  55  56 NE15G22   30.20S                  
MILLVILLE      PTSUNNY   71  53  52 E10       30.21S                  
MOUNT HOLLY    FAIR      69  53  56 E8        30.23R                  
TRENTON        PTSUNNY   66  52  60 NE9       30.23S                  

$$
NJZ001>014-181600-
NORTHERN NEW JERSEY
  
CITY           SKY/WX    TMP DP  RH WIND       PRES   REMARKS
SUSSEX         FAIR      64  50  60 E12       30.27S                  
ANDOVER*         N/A     65  51  60 N6        30.27S                  
MORRISTOWN     MOSUNNY   66  54  63 NE7       30.26S                  
NEWARK         FAIR      67  50  54 NE10      30.25S                  
TETERBORO      FAIR      66  50  56 E9        30.25S                  
CALDWELL       PTSUNNY   66  50  56 NE8       30.26F                  
SOMERVILLE     FAIR      67  50  54 NE8       30.24R                  
ALLAIRE*       CLOUDY    66  51  58 E14       30.24S                  
TOMS RIVER*    PTSUNNY   67  54  63 NE15      30.23S                  

$$
PAZ043-044-047-054-055-060>062-066>071-181600-
EASTERN PENNSYLVANIA
  
CITY           SKY/WX    TMP DP  RH WIND       PRES   REMARKS
PHILADELPHIA   FAIR      70  52  52 NE8       30.23S                  
NORTH PHILA    FAIR      68  53  58 NE7       30.25R                  
BLUE BELL*     CLOUDY    67  55  64 E8        30.24S                  
DOYLESTOWN     FAIR      70  54  56 NE10      30.24S                  
QUAKERTOWN*    PTSUNNY   64  54  68 N6        30.26                   
PERKASIE*      PTSUNNY   63  55  77 NE7       30.26S                  
POTTSTOWN      CLOUDY    64  54  69 NE6       30.26S                  
LANCASTER      FAIR      69  50  50 VRB5      30.24S                  
COATESVILLE    FAIR      64  54  68 N6        30.25S                  
WEST CHESTER   FAIR      68  54  60 E5        30.24S                  
READING        FAIR      66  54  65 NE8       30.24S                  
ALLENTOWN      FAIR      66  51  58 NE9       30.26S                  
QN CITY/ALNTWN PTSUNNY   64  52  63 NE6       30.27S                  
MOUNT POCONO   FAIR      58  45  62 VRB5      30.28R                  
HAZLETON       FAIR      61  45  55 CALM      30.30S                  
LEHIGHTON      FAIR      64  46  52 E8        30.27S                  
WILKES BARRE   FAIR      66  47  50 E6        30.28S                  

$$
DEZALL-MDZ008-012-015-019-020-181600-
DELAWARE AND EASTERN MARYLAND
  
CITY           SKY/WX    TMP DP  RH WIND       PRES   REMARKS
WILMINGTON     FAIR      71  56  58 NE10      30.23S                  
DOVER          FAIR      71  55  56 NE13      30.21S                  
CHESWOLD       PTSUNNY   68  55  64 NE9G15    30.21F                  
GEORGETOWN     FAIR      70  56  61 NE17G23   30.20S                  
EASTON         MOSUNNY   73  54  49 NE9       30.24S                  
STEVENSVILLE   FAIR      73  55  53 E3        30.21S                  
ABERDEEN       MOSUNNY   70  55  60 E7        30.22                   
PATUXENT       FAIR      73  53  49 NE8       30.20                   
OCEAN CITY     CLOUDY    69  55  60 NE12G23   30.18R                  
WALLOPS ISLAND PTSUNNY   68  56  65 NE13      30.18S                  
CAMBRIDGE      PTSUNNY   72  54  53 E9G16     30.20S                  
SALISBURY      PTSUNNY   73  56  54 E12G18    30.18S                  

$$
PAZ001-021-NYZ056-072-MDZ011-DCZ001-181600-
OTHER NEARBY LOCATIONS
  
CITY           SKY/WX    TMP DP  RH WIND       PRES   REMARKS
HARRISBURG     FAIR      69  48  47 NE5       30.24S                  
STATE COLLEGE  SUNNY     61  52  72 NE6       30.28S                  
WILLIAMSPORT   FAIR      64  48  56 SE5       30.26F                  
BINGHAMTON     FAIR      60  45  57 E8        30.30S                  
NEW YORK CITY  CLOUDY    64  51  62 VRB6      30.28                   
BALTIMORE      FAIR      73  56  54 NE6       30.21S                  
WASHINGTON DC  FAIR      74  55  51 NE8       30.22S                  

$$